CEB458 RPVI-RPLL

Flight info

Callsign CEB458
Flight time 0h 53m
Altitude 32000
Route LAMBO1S LAMBO B472 IBAGO IBAGO5R
Aircraft A339/H-SADE1E2E3GHIJ3J5M1P2RWXY/LB2D1

Departure

Time 2026-04-26 14:40
Airport Iloilo International Airport (RPVI)

Arrival

Time 2026-04-26 15:34
Airport Ninoy Aquino International Airport (RPLL)
Time Latitude Longitude Altitude Speed Heading
2026-04-26 14:25 10.83117 122.49640 183 ft 0 kts 110°
2026-04-26 14:31 10.83120 122.49632 183 ft 2 kts 109°
2026-04-26 14:31 10.83124 122.49621 183 ft 2 kts 110°
2026-04-26 14:31 10.83129 122.49608 183 ft 1 kts 111°
2026-04-26 14:31 10.83132 122.49599 183 ft 2 kts 105°
2026-04-26 14:32 10.83133 122.49583 184 ft 2 kts 75°
2026-04-26 14:32 10.83128 122.49571 184 ft 2 kts 55°
2026-04-26 14:32 10.83118 122.49560 184 ft 2 kts 34°
2026-04-26 14:32 10.83110 122.49555 184 ft 0 kts 20°
2026-04-26 14:33 10.83107 122.49554 184 ft 0 kts 20°
2026-04-26 14:35 10.83221 122.49598 184 ft 10 kts 19°
2026-04-26 14:36 10.83302 122.49628 183 ft 13 kts 20°
2026-04-26 14:36 10.83400 122.49664 183 ft 16 kts 19°
2026-04-26 14:36 10.83485 122.49657 184 ft 10 kts 305°
2026-04-26 14:36 10.83520 122.49583 184 ft 12 kts 290°
2026-04-26 14:37 10.83556 122.49490 184 ft 14 kts 301°
2026-04-26 14:37 10.83645 122.49465 184 ft 15 kts 17°
2026-04-26 14:37 10.83752 122.49503 184 ft 17 kts 20°
2026-04-26 14:37 10.83870 122.49548 184 ft 18 kts 20°
2026-04-26 14:38 10.83996 122.49594 184 ft 19 kts 20°
2026-04-26 14:38 10.84131 122.49646 184 ft 20 kts 19°
2026-04-26 14:38 10.84264 122.49699 184 ft 18 kts 38°
2026-04-26 14:38 10.84326 122.49737 184 ft 3 kts 341°
2026-04-26 14:39 10.84327 122.49718 184 ft 4 kts 226°
2026-04-26 14:39 10.84291 122.49703 184 ft 5 kts 200°
2026-04-26 14:39 10.84287 122.49702 184 ft 0 kts 200°
2026-04-26 14:39 10.84209 122.49673 184 ft 43 kts 200°
2026-04-26 14:40 10.83643 122.49464 184 ft 126 kts 200°
2026-04-26 14:40 10.82593 122.49075 275 ft 184 kts 199°
2026-04-26 14:40 10.81361 122.48598 953 ft 195 kts 198°
2026-04-26 14:40 10.80109 122.48125 1921 ft 193 kts 203°
2026-04-26 14:41 10.79154 122.47202 2503 ft 199 kts 249°
2026-04-26 14:41 10.79106 122.45792 2867 ft 208 kts 295°
2026-04-26 14:41 10.80001 122.44623 3225 ft 216 kts 333°
2026-04-26 14:41 10.81439 122.44136 3635 ft 226 kts 352°
2026-04-26 14:42 10.83005 122.43796 4234 ft 234 kts 351°
2026-04-26 14:42 10.84604 122.43415 4949 ft 237 kts 350°
2026-04-26 14:42 10.86209 122.43015 5646 ft 239 kts 349°
2026-04-26 14:42 10.87823 122.42601 6325 ft 242 kts 349°
2026-04-26 14:43 10.89461 122.42176 6992 ft 244 kts 349°
2026-04-26 14:43 10.91119 122.41745 7619 ft 247 kts 348°
2026-04-26 14:43 10.92772 122.41311 8233 ft 250 kts 348°
2026-04-26 14:43 10.94467 122.40865 8852 ft 253 kts 348°
2026-04-26 14:44 10.96187 122.40413 9477 ft 255 kts 348°
2026-04-26 14:44 10.97911 122.39957 10088 ft 258 kts 348°
2026-04-26 14:44 10.99650 122.39499 10683 ft 260 kts 348°
2026-04-26 14:44 11.01435 122.39028 11273 ft 263 kts 347°
2026-04-26 14:45 11.03212 122.38559 11851 ft 266 kts 347°
2026-04-26 14:45 11.04406 122.38244 12230 ft 268 kts 347°
2026-04-26 14:45 11.06825 122.37604 12981 ft 272 kts 347°
2026-04-26 14:45 11.08653 122.37120 13532 ft 274 kts 347°
2026-04-26 14:46 11.10524 122.36625 14099 ft 277 kts 347°
2026-04-26 14:46 11.12383 122.36135 14663 ft 279 kts 347°
2026-04-26 14:46 11.14295 122.35630 15232 ft 281 kts 347°
2026-04-26 14:46 11.16157 122.35075 15781 ft 284 kts 342°
2026-04-26 14:47 11.18028 122.34354 16189 ft 292 kts 339°
2026-04-26 14:47 11.19973 122.33522 16441 ft 307 kts 338°
2026-04-26 14:47 11.21990 122.32647 16689 ft 322 kts 338°
2026-04-26 14:47 11.24117 122.31724 16935 ft 336 kts 338°
2026-04-26 14:48 11.26318 122.30769 17173 ft 351 kts 338°
2026-04-26 14:48 11.28593 122.29783 17482 ft 362 kts 338°
2026-04-26 14:48 11.30955 122.28760 17992 ft 366 kts 338°
2026-04-26 14:48 11.33312 122.27738 18550 ft 369 kts 338°
2026-04-26 14:49 11.35685 122.26710 19105 ft 371 kts 338°
2026-04-26 14:49 11.38076 122.25674 19636 ft 374 kts 337°
2026-04-26 14:49 11.40474 122.24635 20148 ft 377 kts 337°
2026-04-26 14:49 11.42873 122.23594 20632 ft 380 kts 337°
2026-04-26 14:50 11.45347 122.22520 21118 ft 383 kts 337°
2026-04-26 14:50 11.47784 122.21463 21599 ft 385 kts 337°
2026-04-26 14:50 11.50263 122.20387 22066 ft 388 kts 336°
2026-04-26 14:50 11.52773 122.19298 22545 ft 390 kts 336°
2026-04-26 14:51 11.55283 122.18209 23000 ft 393 kts 336°
2026-04-26 14:51 11.57815 122.17110 23432 ft 396 kts 336°
2026-04-26 14:51 11.60350 122.16009 23851 ft 399 kts 336°
2026-04-26 14:51 11.62933 122.14887 24262 ft 403 kts 336°
2026-04-26 14:52 11.65514 122.13767 24667 ft 406 kts 336°
2026-04-26 14:52 11.68115 122.12637 25065 ft 409 kts 335°
2026-04-26 14:52 11.70774 122.11481 25465 ft 413 kts 335°
2026-04-26 14:52 11.73412 122.10334 25850 ft 416 kts 335°
2026-04-26 14:53 11.76098 122.09166 26235 ft 419 kts 335°
2026-04-26 14:53 11.78775 122.08002 26609 ft 422 kts 335°
2026-04-26 14:53 11.81473 122.06827 26980 ft 425 kts 335°
2026-04-26 14:53 11.84230 122.05627 27293 ft 429 kts 335°
2026-04-26 14:54 11.86965 122.04437 27499 ft 429 kts 335°
2026-04-26 14:54 11.89730 122.03234 27749 ft 432 kts 335°
2026-04-26 14:54 11.92492 122.02030 27997 ft 434 kts 335°
2026-04-26 14:54 11.95299 122.00808 28248 ft 435 kts 335°
2026-04-26 14:55 11.98078 121.99598 28496 ft 437 kts 335°
2026-04-26 14:55 12.00896 121.98371 28751 ft 439 kts 335°
2026-04-26 14:55 12.03724 121.97138 29007 ft 442 kts 335°
2026-04-26 14:55 12.06547 121.95908 29261 ft 442 kts 335°
2026-04-26 14:56 12.09383 121.94672 29517 ft 441 kts 334°
2026-04-26 14:56 12.12206 121.93439 29772 ft 441 kts 335°
2026-04-26 14:56 12.15041 121.92200 30031 ft 440 kts 335°
2026-04-26 14:56 12.17885 121.90958 30290 ft 441 kts 335°
2026-04-26 14:57 12.20706 121.89726 30547 ft 442 kts 335°
2026-04-26 14:57 12.23516 121.88500 30803 ft 443 kts 335°
2026-04-26 14:57 12.26379 121.87247 31063 ft 444 kts 335°
2026-04-26 14:57 12.29232 121.86000 31323 ft 445 kts 335°
2026-04-26 14:58 12.32083 121.84755 31581 ft 446 kts 335°
2026-04-26 14:58 12.34939 121.83506 31824 ft 448 kts 335°
2026-04-26 14:58 12.37794 121.82259 31877 ft 449 kts 335°
2026-04-26 14:59 12.43542 121.79752 31883 ft 449 kts 335°
2026-04-26 14:59 12.49322 121.77227 31884 ft 449 kts 334°
2026-04-26 15:00 12.55068 121.74712 31886 ft 448 kts 334°
2026-04-26 15:00 12.60779 121.72207 31887 ft 447 kts 334°
2026-04-26 15:01 12.66532 121.69684 31891 ft 447 kts 334°
2026-04-26 15:01 12.72232 121.67184 31802 ft 446 kts 335°
2026-04-26 15:01 12.75121 121.65915 31143 ft 451 kts 335°
2026-04-26 15:02 12.78037 121.64635 30247 ft 459 kts 335°
2026-04-26 15:02 12.80966 121.63348 29548 ft 461 kts 335°
2026-04-26 15:02 12.83918 121.62053 28944 ft 461 kts 335°
2026-04-26 15:02 12.86855 121.60764 28340 ft 461 kts 335°
2026-04-26 15:03 12.89800 121.59470 27893 ft 457 kts 335°
2026-04-26 15:03 12.92721 121.58186 27440 ft 453 kts 335°
2026-04-26 15:03 12.95607 121.56916 26945 ft 451 kts 335°
2026-04-26 15:03 12.98475 121.55655 26541 ft 446 kts 335°
2026-04-26 15:04 13.01316 121.54406 26169 ft 440 kts 335°
2026-04-26 15:04 13.04100 121.53181 25817 ft 434 kts 335°
2026-04-26 15:04 13.06865 121.51963 25474 ft 429 kts 335°
2026-04-26 15:04 13.09585 121.50767 25130 ft 423 kts 335°
2026-04-26 15:05 13.12283 121.49578 24793 ft 418 kts 335°
2026-04-26 15:05 13.14071 121.48791 24571 ft 414 kts 335°
2026-04-26 15:05 13.17631 121.47221 24114 ft 408 kts 335°
2026-04-26 15:05 13.20222 121.46078 23786 ft 403 kts 335°
2026-04-26 15:06 13.22757 121.44960 23455 ft 398 kts 335°
2026-04-26 15:06 13.25322 121.43829 23131 ft 394 kts 335°
2026-04-26 15:06 13.27805 121.42733 22815 ft 389 kts 335°
2026-04-26 15:06 13.30290 121.41637 22499 ft 385 kts 335°
2026-04-26 15:07 13.35125 121.39500 21870 ft 378 kts 335°
2026-04-26 15:07 13.37544 121.38432 21536 ft 375 kts 335°
2026-04-26 15:07 13.39917 121.37382 21191 ft 373 kts 336°
2026-04-26 15:08 13.42303 121.36328 20836 ft 371 kts 336°
2026-04-26 15:08 13.44685 121.35274 20481 ft 369 kts 336°
2026-04-26 15:08 13.47042 121.34233 20126 ft 368 kts 335°
2026-04-26 15:08 13.49375 121.33203 20028 ft 357 kts 335°
2026-04-26 15:09 13.51605 121.32218 19979 ft 345 kts 335°
2026-04-26 15:09 13.53697 121.31108 19929 ft 333 kts 326°
2026-04-26 15:09 13.55508 121.29657 19772 ft 326 kts 315°
2026-04-26 15:09 13.57062 121.27961 19439 ft 326 kts 311°
2026-04-26 15:10 13.58550 121.26212 19120 ft 325 kts 310°
2026-04-26 15:10 13.59540 121.25040 18909 ft 324 kts 310°
2026-04-26 15:10 13.61501 121.22725 18485 ft 323 kts 310°
2026-04-26 15:10 13.62981 121.20985 18180 ft 323 kts 311°
2026-04-26 15:11 13.64476 121.19231 17848 ft 323 kts 311°
2026-04-26 15:11 13.65949 121.17506 17532 ft 322 kts 311°
2026-04-26 15:11 13.67422 121.15781 17220 ft 321 kts 311°
2026-04-26 15:11 13.68897 121.14056 16930 ft 320 kts 311°
2026-04-26 15:12 13.70348 121.12357 16633 ft 319 kts 311°
2026-04-26 15:12 13.71811 121.10644 16319 ft 318 kts 311°
2026-04-26 15:12 13.73278 121.08926 16022 ft 317 kts 311°
2026-04-26 15:12 13.74719 121.07238 15724 ft 316 kts 311°
2026-04-26 15:13 13.76168 121.05538 15404 ft 315 kts 311°
2026-04-26 15:13 13.77622 121.03835 15106 ft 314 kts 311°
2026-04-26 15:13 13.79060 121.02150 14822 ft 313 kts 311°
2026-04-26 15:13 13.80491 121.00474 14531 ft 312 kts 311°
2026-04-26 15:14 13.82074 120.98971 14204 ft 311 kts 329°
2026-04-26 15:14 13.84064 120.98128 13901 ft 308 kts 349°
2026-04-26 15:14 13.86204 120.97848 13612 ft 306 kts 355°
2026-04-26 15:14 13.88319 120.97651 13321 ft 305 kts 355°
2026-04-26 15:15 13.90442 120.97451 13049 ft 304 kts 355°
2026-04-26 15:15 13.92548 120.97241 12758 ft 303 kts 355°
2026-04-26 15:15 13.94647 120.97025 12468 ft 302 kts 355°
2026-04-26 15:15 13.96736 120.96805 12176 ft 301 kts 355°
2026-04-26 15:16 13.98839 120.96584 11898 ft 300 kts 355°
2026-04-26 15:16 14.00900 120.96367 11705 ft 295 kts 355°
2026-04-26 15:16 14.02947 120.96151 11506 ft 291 kts 355°
2026-04-26 15:16 14.04967 120.95937 11310 ft 288 kts 355°
2026-04-26 15:17 14.06959 120.95726 11129 ft 284 kts 356°
2026-04-26 15:17 14.08266 120.95588 11009 ft 281 kts 356°
2026-04-26 15:17 14.10852 120.95314 10740 ft 276 kts 356°
2026-04-26 15:17 14.12747 120.95113 10409 ft 271 kts 356°
2026-04-26 15:18 14.14613 120.94916 10054 ft 262 kts 356°
2026-04-26 15:18 14.16361 120.94687 9896 ft 247 kts 349°
2026-04-26 15:18 14.17979 120.94167 9850 ft 241 kts 338°
2026-04-26 15:18 14.19479 120.93379 9587 ft 244 kts 333°
2026-04-26 15:19 14.20949 120.92501 9391 ft 241 kts 332°
2026-04-26 15:19 14.22397 120.91625 9162 ft 240 kts 332°
2026-04-26 15:19 14.23837 120.90759 8932 ft 238 kts 332°
2026-04-26 15:19 14.25143 120.89713 8707 ft 240 kts 307°
2026-04-26 15:20 14.25778 120.88129 8435 ft 242 kts 274°
2026-04-26 15:20 14.25523 120.86452 8201 ft 240 kts 246°
2026-04-26 15:20 14.24802 120.84965 7975 ft 239 kts 239°
2026-04-26 15:20 14.23941 120.83456 7730 ft 239 kts 238°
2026-04-26 15:21 14.23077 120.81992 7493 ft 238 kts 237°
2026-04-26 15:21 14.22209 120.80532 7253 ft 237 kts 237°
2026-04-26 15:21 14.21362 120.79106 7046 ft 235 kts 237°
2026-04-26 15:21 14.20507 120.77665 6746 ft 235 kts 237°
2026-04-26 15:22 14.19683 120.76188 6445 ft 235 kts 246°
2026-04-26 15:22 14.19443 120.74545 6122 ft 235 kts 281°
2026-04-26 15:22 14.20097 120.73074 5979 ft 226 kts 315°
2026-04-26 15:22 14.21289 120.71989 5991 ft 227 kts 325°
2026-04-26 15:23 14.22554 120.71032 5990 ft 227 kts 327°
2026-04-26 15:23 14.23853 120.70078 5979 ft 227 kts 327°
2026-04-26 15:23 14.25136 120.69141 5980 ft 227 kts 327°
2026-04-26 15:23 14.26443 120.68191 5972 ft 226 kts 327°
2026-04-26 15:24 14.27736 120.67250 5967 ft 225 kts 327°
2026-04-26 15:24 14.28998 120.66329 5777 ft 222 kts 327°
2026-04-26 15:24 14.30262 120.65404 5462 ft 224 kts 327°
2026-04-26 15:24 14.31604 120.64571 5157 ft 220 kts 346°
2026-04-26 15:25 14.33086 120.64532 4856 ft 212 kts 20°
2026-04-26 15:25 14.34276 120.65354 4510 ft 210 kts 54°
2026-04-26 15:25 14.34872 120.66714 4234 ft 207 kts 74°
2026-04-26 15:25 14.35224 120.68126 4019 ft 203 kts 77°
2026-04-26 15:26 14.35533 120.69537 3835 ft 198 kts 77°
2026-04-26 15:26 14.35825 120.70898 3679 ft 191 kts 77°
2026-04-26 15:26 14.36111 120.72249 3407 ft 192 kts 77°
2026-04-26 15:26 14.36387 120.73585 3148 ft 192 kts 78°
2026-04-26 15:27 14.36625 120.74931 2900 ft 191 kts 79°
2026-04-26 15:27 14.36906 120.76270 2648 ft 190 kts 73°
2026-04-26 15:27 14.37367 120.77532 2488 ft 186 kts 65°
2026-04-26 15:27 14.37945 120.78696 2471 ft 174 kts 61°
2026-04-26 15:28 14.38522 120.79745 2462 ft 163 kts 60°
2026-04-26 15:28 14.39083 120.80748 2478 ft 163 kts 60°
2026-04-26 15:28 14.39650 120.81761 2481 ft 163 kts 60°
2026-04-26 15:28 14.40222 120.82786 2482 ft 163 kts 60°
2026-04-26 15:29 14.40776 120.83782 2479 ft 163 kts 60°
2026-04-26 15:29 14.41337 120.84793 2481 ft 162 kts 60°
2026-04-26 15:29 14.42464 120.86826 2483 ft 163 kts 61°
2026-04-26 15:30 14.43602 120.88879 2411 ft 165 kts 60°
2026-04-26 15:30 14.44162 120.89888 2202 ft 163 kts 60°
2026-04-26 15:30 14.44726 120.90904 2002 ft 163 kts 60°
2026-04-26 15:31 14.45268 120.91881 1819 ft 161 kts 60°
2026-04-26 15:31 14.46324 120.93784 1404 ft 148 kts 60°
2026-04-26 15:31 14.46827 120.94690 1221 ft 143 kts 60°
2026-04-26 15:32 14.47654 120.96178 936 ft 143 kts 61°
2026-04-26 15:32 14.48313 120.97362 691 ft 143 kts 63°
2026-04-26 15:32 14.48782 120.98229 517 ft 142 kts 62°
2026-04-26 15:33 14.49290 120.99107 333 ft 142 kts 60°
2026-04-26 15:33 14.49776 120.99986 169 ft 142 kts 63°
2026-04-26 15:33 14.50253 121.00864 91 ft 133 kts 60°
2026-04-26 15:33 14.50573 121.01432 90 ft 102 kts 60°
2026-04-26 15:34 14.50887 121.01994 90 ft 49 kts 61°
2026-04-26 15:34 14.51035 121.02206 90 ft 24 kts 42°
2026-04-26 15:34 14.51122 121.02286 90 ft 13 kts 38°
2026-04-26 15:34 14.51182 121.02283 90 ft 8 kts 293°
2026-04-26 15:35 14.51171 121.02239 90 ft 6 kts 249°
2026-04-26 15:35 14.51143 121.02174 90 ft 10 kts 241°
2026-04-26 15:35 14.51105 121.02102 90 ft 12 kts 241°
2026-04-26 15:35 14.51065 121.02027 90 ft 11 kts 252°
2026-04-26 15:36 14.51097 121.01957 90 ft 12 kts 314°
2026-04-26 15:36 14.51154 121.01898 90 ft 13 kts 315°
2026-04-26 15:36 14.51225 121.01829 90 ft 14 kts 315°
2026-04-26 15:36 14.51297 121.01756 90 ft 15 kts 315°
2026-04-26 15:37 14.51370 121.01680 90 ft 15 kts 314°
2026-04-26 15:37 14.51446 121.01599 90 ft 16 kts 315°
2026-04-26 15:37 14.51528 121.01514 90 ft 16 kts 314°
2026-04-26 15:37 14.51612 121.01430 90 ft 17 kts 314°
2026-04-26 15:38 14.51674 121.01369 90 ft 4 kts 339°
2026-04-26 15:38 14.51693 121.01373 90 ft 1 kts 36°
2026-04-26 15:38 14.51713 121.01386 90 ft 5 kts 34°
2026-04-26 15:38 14.51743 121.01413 90 ft 3 kts 46°
2026-04-26 15:39 14.51747 121.01417 90 ft 0 kts 46°